Flight Track Log - Related Links

Times and Time Zones

All times are in EDT time to prevent confusion due to time zone crossing. See the EJA929 flight status page for this flight to view local times or setup timezone preferences in your user account.

Time Position Orientation Groundspeed Altitude Reporting Facility
EDT Latitude Longitude Course Direction KTS MPH feet Rate Location/Type
Wed 05:49:05 PM 42.5475 -76.6069 285° West 252 290 7,800  Level Cleveland Center
Wed 05:50:07 PM 42.5683 -76.7106 285° West 278 320 10,600 2,032 Climbing Cleveland Center
Wed 05:51:09 PM 42.5919 -76.8300 285° West 324 373 12,000 1,645 Climbing Cleveland Center
Wed 05:52:11 PM 42.6167 -76.9592 285° West 352 405 14,000 1,935 Climbing Cleveland Center
Wed 05:53:13 PM 42.6475 -77.1206 285° West 367 422 16,000 1,776 Climbing Cleveland Center
Wed 05:54:16 PM 42.6742 -77.2597 285° West 378 435 17,700 1,440 Climbing Cleveland Center
Wed 05:55:18 PM 42.7014 -77.4011 285° West 386 444 19,000 774 Climbing Cleveland Center
Wed 05:56:20 PM 42.7300 -77.5514 285° West 418 481 19,300 1,452 Climbing Cleveland Center
Wed 05:57:22 PM 42.7622 -77.7247 284° West 408 470 22,000 2,081 Climbing Cleveland Center
Wed 05:58:24 PM 42.7900 -77.8739 284° West 418 481 23,600 1,500 Climbing Cleveland Center
Wed 05:59:26 PM 42.8178 -78.0261 284° West 418 481 25,100 1,597 Climbing Cleveland Center
Wed 06:00:28 PM 42.8458 -78.1811 284° West 424 488 26,900 1,536 Climbing Cleveland Center
Wed 06:01:31 PM 42.8742 -78.3419 284° West 434 499 28,300 1,488 Climbing Cleveland Center
Wed 06:02:33 PM 42.9100 -78.5392 284° West 450 518 30,000 1,742 Climbing Cleveland Center
Wed 06:03:35 PM 42.9333 -78.7092 281° West 458 527 31,900 1,935 Climbing Cleveland Center
Wed 06:04:37 PM 42.9411 -78.8764 274° West 444 511 34,000 1,016 Climbing Cleveland Center
Wed 06:05:39 PM 42.9494 -79.0503 274° West 457 526 34,000  Level Cleveland Center
Wed 06:06:41 PM 42.9589 -79.2225 274° West 457 526 34,000  Level Cleveland Center
Wed 06:07:31 PM 42.9669 -79.3953 274° West 457 526 34,000  Level Cleveland Center
Wed 06:08:33 PM 42.9747 -79.5683 274° West 459 528 34,000  Level Cleveland Center
Wed 06:09:35 PM 42.9822 -79.7467 273° West 473 544 34,000  Level Cleveland Center
Wed 06:10:38 PM 42.9892 -79.9300 273° West 484 557 34,000  Level Cleveland Center
Wed 06:11:40 PM 42.9997 -80.1303 274° West 482 555 34,000  Level Cleveland Center
Wed 06:12:42 PM 43.0069 -80.3200 273° West 479 551 34,000  Level Cleveland Center
Wed 06:13:44 PM 43.0147 -80.5092 273° West 479 551 34,000  Level Cleveland Center
Wed 06:14:46 PM 43.0214 -80.6972 273° West 478 550 34,000  Level Cleveland Center
Wed 06:15:48 PM 43.0272 -80.8856 272° West 474 545 34,000  Level Cleveland Center
Wed 06:16:51 PM 43.0347 -81.0797 273° West 493 567 34,000  Level Cleveland Center
Wed 06:17:53 PM 43.0358 -81.2792 271° West 502 578 34,000  Level Cleveland Center
Wed 06:18:55 PM 43.0325 -81.4375 268° West 501 577 34,000  Level Cleveland Center
Wed 06:19:57 PM 43.0267 -81.6628 268° West 499 574 34,000 -290 Level Cleveland Center
Wed 06:20:59 PM 43.0131 -81.8489 264° West 497 572 33,400 -1,008 Descending Cleveland Center
Wed 06:22:02 PM 42.9758 -82.0308 254° West 500 575 31,900 -1,440 Descending Cleveland Center
Wed 06:23:04 PM 42.9414 -82.2092 255° West 488 562 30,400 -1,000 Descending Cleveland Center
Wed 06:23:56 PM 42.9000 -82.3667 250° West 480 552 30,000 -214 Descending Toronto Center
Wed 06:24:56 PM 42.8667 -82.5667 257° West 490 564 30,000 -403 Level Toronto Center
Wed 06:26:10 PM 42.8578 -82.7678 267° West 458 527 29,100 -1,059 Descending Cleveland Center
Wed 06:27:12 PM 42.8783 -82.9381 279° West 455 524 27,600 -1,548 Descending Cleveland Center
Wed 06:28:14 PM 42.8953 -83.0997 278° West 444 511 25,900 -1,536 Descending Cleveland Center
Wed 06:29:17 PM 42.9142 -83.2606 279° West 437 503 24,400 -1,824 Descending Cleveland Center
Wed 06:30:19 PM 42.9344 -83.4475 278° West 422 486 22,100 -1,161 Descending Cleveland Center
Wed 06:31:21 PM 42.9508 -83.6056 278° West 422 486 22,000 -48 Descending Cleveland Center
Wed 06:32:23 PM 42.9533 -83.7664 271° West 426 490 22,000  Level Cleveland Center
Wed 06:33:25 PM 42.8967 -83.9122 242° Southwest 443 510 22,000  Level Cleveland Center
Wed 06:34:27 PM 42.8350 -84.0553 240° Southwest 440 506 22,000 -288 Level Cleveland Center
Wed 06:35:30 PM 42.7586 -84.2231 238° Southwest 440 506 21,400 -1,536 Descending Cleveland Center
Wed 06:36:32 PM 42.7100 -84.3361 240° Southwest 401 461 18,800 -2,613 Descending Cleveland Center
Wed 06:37:34 PM 42.6519 -84.4669 239° Southwest 367 422 16,000 -1,355 Descending Cleveland Center
Wed 06:38:36 PM 42.6106 -84.5631 240° Southwest 300 345 16,000 -1,306 Level Cleveland Center
Wed 06:39:38 PM 42.5708 -84.6550 240° Southwest 284 327 13,300 -2,976 Descending Cleveland Center
Wed 06:40:41 PM 42.5294 -84.7497 239° Southwest 269 310 9,800 -3,120 Descending Cleveland Center
Wed 06:41:43 PM 42.4931 -84.8325 239° Southwest 258 297 6,800 -2,710 Descending Cleveland Center
Wed 06:42:45 PM 42.4581 -84.9086 238° Southwest 242 278 4,200 -2,032 Descending Cleveland Center
Wed 06:43:47 PM 42.4244 -84.9864 240° Southwest 206 237 2,600 -823 Descending Cleveland Center
Wed 06:44:49 PM 42.3986 -85.0542 243° Southwest 200 230 2,500 -48 Descending Cleveland Center
Wed 06:45:51 PM 42.3792 -85.1267 250° West 203 234 2,500 -97 Level Cleveland Center
Wed 06:46:53 PM 42.3586 -85.1914 247° West 203 234 2,300 -480 Descending Cleveland Center
Wed 06:47:56 PM 42.3236 -85.2289 218° Southwest 170 196 1,500 -762 Descending Cleveland Center

Login

Don't have an account? Register now (free) for customized features, flight alerts, and more!